Location: S�tio Adolfo Schvazc
(26.2061°S, 49.3439°W)
Time: 23:44:07
(UTC+00:00)

Daily predictions for brighter satellites

Satellite Brightness Start Highest point End
(mag) Time Altitude Azimuth Time Altitude Azimuth Time Altitude Azimuth
Centaur D-1AR AC-36 3.9 19:41:46 10° WNW 19:46:21 66° N 20:14:43 10° E
Centaur D-1AR AC-36 3.9 19:41:45 10° WNW 19:46:21 66° N 20:14:44 10° E
Centaur D-1AR AC-36 3.9 19:41:45 10° WNW 19:46:22 66° N 20:14:43 10° E
Centaur D-1AR AC-36 3.9 19:41:46 10° WNW 19:46:22 66° N 20:14:44 10° E
Centaur D-1AR AC-36 3.9 19:41:46 10° WNW 19:46:22 66° N 20:14:43 10° E
NOSS 3-1 (C) 3.2 20:48:00 10° SSW 20:53:48 90° WNW 20:59:00 10° NNE
STARLINK-68 3.9 20:50:04 10° NNW 20:53:54 49° NE 20:57:48 10° SE
STARLINK-24 3.9 20:50:08 10° NNW 20:54:00 49° NE 20:57:56 10° SE
NOSS 3-1 (A) 3.3 20:49:09 10° SSW 20:54:48 49° ESE 20:59:51 10° NE
STARLINK-63 3.9 20:51:36 10° NNW 20:55:26 49° NE 20:59:19 10° SE
COSMOS 2428 2.8 20:49:50 10° NNW 20:55:32 78° ENE 21:01:18 10° SSE
STARLINK-1192 3.8 20:52:27 10° SSW 20:56:32 51° SE 21:00:36 10° NE
STARLINK-35 3.9 20:53:10 10° NNW 20:56:59 47° NE 21:00:51 10° SE
STARLINK-1010 4.3 20:54:28 10° NNW 20:58:30 42° NE 21:02:33 10° SE
STARLINK-51 3.9 20:54:49 10° NNW 20:58:41 50° NE 21:02:35 10° SE
STARLINK-1015 4.4 20:54:53 10° NNW 20:58:44 37° NE 21:02:36 10° ESE
Delta 142 4.5 20:55:54 10° NW 21:00:00 42° NNE 21:04:56 10° E
STARLINK-30 3.8 20:56:25 10° NNW 21:00:16 52° NE 21:04:11 10° SE
STARLINK-1244 3.7 20:57:22 10° SSW 21:01:30 58° SE 21:05:36 10° NE
Cosmos 1782 2.8 20:57:41 10° S 21:01:42 64° E 21:05:38 10° NNE
STARLINK-72 3.7 20:58:03 10° NNW 21:01:56 55° NE 21:05:51 10° SE
Cosmos 1633 Rocket 4.2 20:59:51 10° NE 21:03:21 23° E 21:06:53 10° SE
STARLINK-1016 4.2 20:59:44 10° NNW 21:03:40 43° NE 21:07:38 10° SE
Cosmos 1633 4.3 21:01:49 10° NNW 21:05:11 36° W 21:08:36 10° SSW
STARLINK-59 3.6 21:01:23 10° NNW 21:05:18 65° NE 21:09:18 10° SE
BREEZE-M DEB (TANK) 2.8 21:03:24 10° NNW 21:05:52 47° ENE 21:12:45 10° SE
STARLINK-1138 3.6 21:02:19 10° SW 21:06:30 66° SE 21:10:38 10° NE
STARLINK-56 3.6 21:02:55 10° NNW 21:06:51 64° NE 21:10:50 10° SE
NOSS 2-3 (C) 4.1 21:00:58 10° SSW 21:06:52 56° ESE 21:11:29 10° NE
Cosmos 2112 Rocket 4.1 21:01:53 10° N 21:07:06 59° ENE 21:12:20 10° SSE
STARLINK-50 3.6 21:03:21 10° NNW 21:07:20 65° NE 21:11:23 10° SE
Cosmos 1934 Rocket 4.4 21:01:07 10° NNW 21:07:21 70° W 21:13:44 10° S
STARLINK-73 3.6 21:04:33 10° NNW 21:08:28 67° NE 21:12:27 10° SE
STARLINK-1203 3.6 21:04:23 10° SW 21:08:38 72° SE 21:12:50 10° NE
STARLINK-1008 4.0 21:04:39 10° NNW 21:08:40 49° NE 21:12:43 10° SE
Centaur D-1AR AC-39 4.1 21:08:43 10° NNE 21:09:50 11° NE 21:11:09 10° NE
STARLINK-38 3.5 21:06:13 10° NNW 21:10:10 71° NE 21:14:11 10° SE
ERBS 2.3 21:07:37 10° SSW 21:10:57 59° SE 21:14:14 10° NE
STARLINK-1143 3.6 21:07:16 10° SW 21:11:29 75° SE 21:15:37 10° NE
Cosmos 1605 Rocket 4.0 21:05:25 10° N 21:11:41 77° E 21:17:55 10° S
STARLINK-65 3.5 21:07:49 10° NNW 21:11:47 74° NE 21:15:47 10° SE
Palapa 6 Rocket 3.6 21:08:08 10° WNW 21:12:21 57° N 21:17:30 10° E
STARLINK-53 3.5 21:09:33 10° NW 21:13:31 83° NE 21:17:32 10° SE
STARLINK-1014 3.8 21:09:31 10° NNW 21:13:36 56° NE 21:17:30 11° SE
STARLINK-1241 3.6 21:12:14 10° SW 21:16:27 86° SE 21:20:36 10° NE
Cosmos 2237 Rocket 2.7 21:11:43 10° N 21:16:57 39° ENE 21:22:12 10° SE
SMAP 3.1 21:12:34 10° SSE 21:17:13 58° E 21:21:47 10° N
STARLINK-1025 3.7 21:14:27 10° NNW 21:18:33 64° NE 21:22:15 13° SE
Lacrosse 5 rocket 3.2 21:16:20 10° NNE 21:18:50 16° ENE 21:20:30 13° E
STARLINK-1239 3.7 21:17:12 10° SW 21:21:24 84° NW 21:25:33 10° NE
Cosmos 1805 Rocket 4.0 21:17:57 10° NNW 21:22:15 64° W 21:26:38 10° S
Cosmos 1818 3.6 21:17:21 10° NNW 21:22:38 59° ENE 21:27:57 10° SE
CZ-4B R/B 3.5 21:17:57 10° S 21:23:26 74° WSW 21:28:57 10° NNW
STARLINK-1017 3.6 21:19:23 10° NNW 21:23:31 74° NE 21:27:01 14° SE
ATLAS 5 CENTAUR R/B 3.1 21:17:24 10° N 21:24:16 48° ENE 21:30:47 11° SE
STARLINK-1240 3.9 21:22:12 10° SW 21:26:24 74° NW 21:30:32 10° NNE
STARLINK-1023 3.6 21:22:29 10° NW 21:26:42 80° NE 21:30:08 15° SE
Cosmos 2333 Rocket 3.5 21:23:20 10° NW 21:28:44 41° WSW 21:34:11 10° S
Meteor 2-20 Rocket 4.5 21:23:33 10° S 21:29:42 60° E 21:35:46 10° NNE
Cosmos 158 Rocket 4.1 21:24:52 10° NNW 21:29:54 80° WSW 21:35:08 10° SSE
SL-16 R/B 3.7 21:27:08 10° NE 21:30:18 15° E 21:30:51 15° E
STARLINK-1216 4.1 21:27:12 10° SW 21:31:21 64° NW 21:35:27 10° NNE
AQUARIUS 4.1 21:28:47 10° SSE 21:33:20 82° E 21:37:50 10° N
STARLINK-1007 3.6 21:29:18 10° NW 21:33:27 86° SW 21:36:35 17° SE
Milstar 3 4.3 21:23:38 10° W 21:33:28 83° S 21:50:52 15° E
Cosmos 1238 Rocket 3.4 21:28:58 10° N 21:34:22 58° E 21:38:53 10° SSE
STARLINK-1237 4.3 21:32:13 10° SW 21:36:19 56° NW 21:40:23 10° NNE
STARLINK-25 3.9 21:34:08 10° NW 21:37:56 57° SW 21:40:49 17° SSE
STARLINK-1048 3.7 21:34:17 10° NW 21:38:26 76° SW 21:41:23 19° SE
STARLINK-1049 3.9 21:39:19 10° NW 21:43:27 66° SW 21:46:12 20° SSE
CORIOLIS 4.1 21:38:02 10° SSE 21:43:34 86° ENE 21:48:59 10° NNW
Cosmos 2100 Rocket 4.1 21:39:21 10° NNE 21:45:23 53° E 21:51:26 10° SSE
Cosmos 1812 2.7 21:41:36 10° S 21:45:26 57° E 21:49:14 10° NNE
Cosmos 1470 Rocket 4.0 21:42:38 10° NNE 21:46:52 42° E 21:49:27 21° SSE
Cosmos 405 2.8 21:44:30 10° S 21:48:03 81° E 21:51:33 10° N
STARLINK-1051 4.1 21:44:18 10° NW 21:48:23 58° SW 21:50:57 22° SSE
Cosmos 2278 Rocket 3.7 21:46:09 10° SSE 21:48:23 18° SE 21:48:23 18° SE
Fermi 3.7 21:46:30 10° W 21:50:42 84° N 21:52:22 35° E
YAOGAN 6 3.3 21:51:20 10° S 21:55:00 55° WSW 21:58:34 10° NNW
Cosmos 1707 Rocket 3.4 21:50:49 10° S 21:55:16 76° E 21:59:38 10° N
Okean O Rocket 3.9 21:54:37 10° SSW 21:58:10 24° WSW 22:01:42 10° NW
STARLINK-1028 4.5 21:54:22 10° WNW 21:58:21 45° SW 22:00:31 24° SSE
TIMED 4.4 21:54:55 10° N 21:59:16 74° ENE 22:01:24 30° SSE
Cosmos 1844 Rocket 3.7 21:55:31 10° SSW 22:00:57 47° WNW 22:06:21 10° N
SL-24 R/B - RUBIN 2 3.9 21:57:12 10° NNW 22:02:42 67° ENE 22:04:38 37° SE
Cosmos 1441 Rocket 3.3 22:05:41 10° N 22:09:17 58° ENE 22:09:17 58° ENE
Feng Yun 1-1 Rocket 4.4 22:04:47 10° S 22:10:11 69° WSW 22:15:37 10° NNW
Cosmos 2016 Rocket 3.9 22:11:13 10° N 22:17:17 60° E 22:20:29 29° SSE
Cosmos 2173 Rocket 4.1 22:13:42 10° N 22:20:02 81° W 22:26:22 10° S
Meteor 1-20 Rocket 4.1 22:19:35 10° N 22:25:13 88° E 22:28:26 28° S
Geosat 3.8 22:24:29 60° SE 22:25:25 83° ENE 22:30:27 10° NNW
BREEZE-M DEB (TANK) 4.3 22:25:51 10° WNW 22:27:32 20° WSW 22:27:32 20° WSW
Meteor 1-27 Rocket 4.2 22:22:24 10° SSW 22:28:16 65° W 22:34:07 10° N
Cosmos 1459 Rocket 4.3 22:25:23 10° NNW 22:31:26 64° W 22:37:39 10° S
Cosmos 1933 Rocket 3.9 22:31:17 10° NNW 22:35:15 64° WNW 22:35:15 64° WNW
Okean-O 3.2 22:34:59 46° SSW 22:35:52 56° WSW 22:40:13 10° NNW
Cosmos 1802 Rocket 4.4 22:37:29 10° NNW 22:43:50 63° W 22:50:16 10° S
FUSE 4.3 22:38:41 10° WNW 22:43:26 59° NNW 22:43:26 59° NNW
CZ-4 R/B 3.1 22:47:51 28° NW 22:47:51 28° NW 22:49:56 10° NNW
Delta 142 4.4 22:48:05 10° W 22:52:02 60° W 22:52:02 60° W
Cosmos 1725 Rocket 4.0 22:46:50 10° N 22:53:03 81° W 22:53:34 75° SSW
Lacrosse 5 rocket 3.3 22:53:41 10° WNW 22:56:13 29° W 22:56:13 29° W
Palapa 6 Rocket 4.5 22:56:02 10° W 22:59:37 42° NW 22:59:37 42° NW
Cosmos 2237 Rocket 4.4 22:56:58 10° WNW 23:01:03 20° WSW 23:04:52 11° SSW
BREEZE-M DEB (TANK) 4.0 22:54:09 10° WNW 23:00:34 39° W 23:00:34 39° W
ATLAS 5 CENTAUR R/B 4.3 23:03:07 10° WNW 23:09:11 29° SW 23:12:22 21° SSW
SL-16 R/B 3.2 23:08:24 10° NW 23:12:48 43° WNW 23:12:48 43° WNW
